Location: Treviso
(45.6669°N, 12.2430°E)
Time: 07:48:58
(UTC+01:00)

ISS - Pass Details

Date: 13 January 2018
Orbit: 402 x 407 km, 51.6° (Epoch: 21 January)

Event Time Altitude Azimuth Distance (km) Brightness Sun altitude
Exits shadow 07:06:22 - 276° (W) 1,542 -1.5 -7.5°
Reaches altitude 10° 07:06:37 10° 273° (W) 1,465 -1.6 -7.4°
Maximum altitude 07:09:08 21° 223° (SW) 987 -2.1 -7.0°
Drops below altitude 10° 07:11:39 10° 173° (S) 1,459 -0.6 -6.6°
Sets 07:14:03 0° 156° (SSE) 2,316 0.9 -6.3°
